Location: Iesi
(43.5167°N, 13.2333°E)
Time: 16:51:24
(UTC+00:00)

Okean 2 Rocket - Pass Details

Date: 08 August 2020
Orbit: 616 x 642 km, 82.5° (Epoch: 22 September)

Event Time Altitude Azimuth Distance (km) Brightness Sun altitude
Exits shadow 23:45:23 37° 33° (NNE) 989 4.4 -30.2°
Drops below altitude 10° 23:48:16 10° 16° (NNE) 2,031 6.6 -30.1°
Sets 23:50:33 0° 13° (NNE) 2,948 7.7 -30.1°
